Location: Unspecified
(40.7945°N, 0.0000°E)
Time: 14:16:22
(UTC+00:00)

ISS - Visible Passes

Search period start: 23 May 2019 00:00
Search period end: 02 June 2019 00:00
Orbit: 407 x 410 km, 51.6° (Epoch: 23 May)

Date Brightness Start Highest point End Pass type
(mag) Time Alt. Az. Time Alt. Az. Time Alt. Az.
23 May -1.7 19:49:23 10° W 19:52:21 31° NNW 19:55:21 10° NE visible
23 May -0.6 21:28:00 10° NW 21:29:43 13° N 21:31:27 10° NNE visible
23 May -0.9 23:05:11 10° NNW 23:07:20 16° NNE 23:07:50 15° NNE visible
24 May -0.8 20:36:26 10° NW 20:38:30 15° NNW 20:40:34 10° NNE visible
24 May -0.7 22:14:20 10° NNW 22:16:07 14° N 22:17:53 10° NE visible
24 May -0.8 23:50:24 10° NW 23:51:05 15° NNW 23:51:05 15° NNW visible
25 May -0.7 21:23:18 10° NNW 21:24:52 13° N 21:26:26 10° NNE visible
25 May -1.3 22:59:37 10° NNW 23:01:42 22° N 23:01:42 22° N visible
26 May -0.8 20:31:59 10° NNW 20:33:36 13° N 20:35:12 10° NNE visible
26 May -1.2 22:08:50 10° NNW 22:11:10 18° NNE 22:12:20 15° NE visible
26 May -0.6 23:44:53 10° NW 23:45:03 11° NW 23:45:03 11° NW visible
27 May -0.9 21:17:59 10° NNW 21:19:56 15° N 21:21:53 10° NE visible
27 May -1.5 22:54:00 10° NW 22:55:42 25° NNW 22:55:42 25° NNW visible
28 May -0.9 20:27:01 10° NNW 20:28:40 13° N 20:30:18 10° NE visible
28 May -2.1 22:03:10 10° NW 22:06:04 27° NNE 22:06:23 27° NE visible
29 May -1.5 21:12:21 10° NNW 21:14:53 20° NNE 21:17:04 12° ENE visible
29 May -1.5 22:48:29 10° NW 22:49:47 22° WNW 22:49:47 22° WNW visible
30 May -1.2 20:21:30 10° NNW 20:23:39 16° NNE 20:25:47 10° NE visible
30 May -3.2 21:57:31 10° NW 22:00:30 53° N 22:00:30 53° N visible
31 May -2.5 21:06:37 10° NW 21:09:40 33° NNE 21:11:14 21° ENE visible
31 May -1.1 22:43:15 10° WNW 22:43:57 15° W 22:43:57 15° W visible
01 Jun -1.8 20:15:45 10° NNW 20:18:29 23° NNE 20:21:13 10° ENE visible
01 Jun -3.2 21:52:00 10° WNW 21:54:43 49° W 21:54:43 49° W visible
